Weather History for Presque Isle, ME

Change the Weather History Date:

Sunday, October 28, 2012

  Actual Average Record
Temperature  
Mean Temperature 46 °F -  
Max Temperature 55 °F 49 °F 75 °F (1947)
Min Temperature 37 °F 32 °F 16 °F (1936)
Degree Days  
Heating Degree Days 19    
Moisture  
Dew Point 40 °F    
Average Humidity 74    
Maximum Humidity 82    
Minimum Humidity 63    
Precipitation  
Precipitation 0.00 in - - ()
Sea Level Pressure  
Sea Level Pressure 30.06 in    
Wind  
Wind Speed 6 mph (NNE)    
Max Wind Speed 14 mph    
Max Gust Speed -    
Visibility 10 miles    
Events      
Averages and records for this station are not official NWS values.
T = Trace of Precipitation, MM = Missing Value Source: NWS Daily Summary

Daily Weather History Graph

Daily Weather History Graph

Search for Another Location

Airport:

Trip Planner

Search our weather history database for the weather conditions in past years. The results will help you decide how hot, cold, wet, or windy it might be!

Date:

Astronomy

Oct. 28, 2012 Rise Set
Actual Time 7:09 AM EDT 5:22 PM EDT
Civil Twilight 6:37 AM EDT 5:53 PM EDT
Nautical Twilight 6:02 AM EDT 6:28 PM EDT
Astronomical Twilight 5:26 AM EDT 7:04 PM EDT
Moon 4:38 PM EDT (10/28) 5:56 AM EDT (10/28)
Length of Visible Light 11h 15m
Length of Day
10h 13m
Waxing Gibbous, 99% of the Moon is Illuminated
Oct 28
Waxing Gibbous
Oct 29
Full
Nov 6
Last Quarter
Nov 13
New
Nov 20
First Quarter

Hourly Weather History & Observations

Time (EDT) Temp. Windchill Dew Point Humidity Pressure Visibility Wind Dir Wind Speed Gust Speed Precip Events Conditions
12:15 AM 42.8 °F - 32.0 °F 66% 30.09 in 10.0 mi Calm Calm - N/A   Clear
12:35 AM 39.2 °F 37.0 °F 30.2 °F 70% 30.09 in 10.0 mi NNW 3.5 mph - N/A   Clear
12:55 AM 41.0 °F 37.1 °F 32.0 °F 70% 30.09 in 10.0 mi NNE 5.8 mph - N/A   Clear
1:15 AM 37.4 °F 32.8 °F 30.2 °F 75% 30.08 in 10.0 mi NE 5.8 mph - N/A   Clear
1:35 AM 39.2 °F - 30.2 °F 70% 30.09 in 10.0 mi Calm Calm - N/A   Clear
1:55 AM 37.4 °F - 30.2 °F 75% 30.08 in 10.0 mi Calm Calm - N/A   Clear
2:15 AM 37.4 °F - 30.2 °F 75% 30.08 in 10.0 mi Calm Calm - N/A   Clear
2:35 AM 39.2 °F - 32.0 °F 75% 30.08 in 10.0 mi Calm Calm - N/A   Clear
2:55 AM 39.2 °F 35.0 °F 32.0 °F 75% 30.08 in 10.0 mi North 5.8 mph - N/A   Clear
3:15 AM 39.2 °F 35.0 °F 33.8 °F 81% 30.08 in 10.0 mi NNE 5.8 mph - N/A   Clear
3:35 AM 42.8 °F 38.6 °F 35.6 °F 76% 30.08 in 10.0 mi NE 6.9 mph - N/A   Clear
3:55 AM 41.0 °F 38.0 °F 33.8 °F 76% 30.09 in 10.0 mi North 4.6 mph - N/A   Clear
4:15 AM 39.2 °F 37.0 °F 33.8 °F 81% - 10.0 mi NNE 3.5 mph - N/A   Clear
4:35 AM 39.2 °F 35.9 °F 33.8 °F 81% 30.09 in 10.0 mi NNW 4.6 mph - N/A   Clear
4:55 AM 39.2 °F 34.2 °F 33.8 °F 81% 30.08 in 10.0 mi NNE 6.9 mph - N/A   Clear
5:15 AM 41.0 °F 37.1 °F 35.6 °F 81% 30.08 in 10.0 mi NNE 5.8 mph - N/A   Mostly Cloudy
5:35 AM 42.8 °F 41.1 °F 35.6 °F 76% 30.08 in 10.0 mi North 3.5 mph - N/A   Overcast
5:55 AM 42.8 °F 40.1 °F 37.4 °F 81% 30.08 in 10.0 mi NNE 4.6 mph - N/A   Overcast
6:15 AM 42.8 °F 40.1 °F 37.4 °F 81% 30.08 in 10.0 mi NNE 4.6 mph - N/A   Overcast
6:35 AM 42.8 °F 38.6 °F 37.4 °F 81% 30.08 in 10.0 mi North 6.9 mph - N/A   Overcast
7:15 AM 44.6 °F 40.7 °F 37.4 °F 76% 30.09 in 10.0 mi North 6.9 mph - N/A   Overcast
7:35 AM 42.8 °F 38.6 °F 37.4 °F 81% 30.09 in 10.0 mi North 6.9 mph - N/A   Overcast
7:55 AM 44.6 °F 40.2 °F 37.4 °F 76% 30.09 in 10.0 mi NNE 8.1 mph - N/A   Overcast
8:15 AM 44.6 °F 40.2 °F 37.4 °F 76% 30.10 in 10.0 mi NNE 8.1 mph - N/A   Overcast
8:35 AM 44.6 °F 40.7 °F 39.2 °F 81% - 10.0 mi North 6.9 mph - N/A   Overcast
8:55 AM 46.4 °F 42.4 °F 39.2 °F 76% 30.11 in 10.0 mi North 8.1 mph - N/A   Overcast
9:15 AM 46.4 °F 42.9 °F 39.2 °F 76% 30.10 in 10.0 mi NNE 6.9 mph - N/A   Overcast
9:35 AM 46.4 °F 43.5 °F 41.0 °F 81% 30.10 in 10.0 mi NNE 5.8 mph - N/A   Overcast
9:55 AM 48.2 °F - 41.0 °F 76% 30.11 in 10.0 mi North 6.9 mph - N/A   Overcast
10:15 AM 48.2 °F - 41.0 °F 76% 30.09 in 10.0 mi NNE 8.1 mph - N/A   Overcast
10:35 AM 48.2 °F - 42.8 °F 82% 30.09 in 10.0 mi NE 9.2 mph - N/A   Overcast
10:55 AM 50.0 °F - 42.8 °F 76% 30.09 in 10.0 mi NNE 6.9 mph - N/A   Overcast
11:15 AM 51.8 °F - 42.8 °F 71% 30.09 in 10.0 mi NE 9.2 mph - N/A   Overcast
11:35 AM 51.8 °F - 42.8 °F 71% 30.09 in 10.0 mi NNE 5.8 mph - N/A   Overcast
11:55 AM 51.8 °F - 42.8 °F 71% 30.09 in 10.0 mi NE 5.8 mph - N/A   Overcast
12:15 PM 53.6 °F - 42.8 °F 67% 30.08 in 10.0 mi NNE 5.8 mph - N/A   Overcast
12:35 PM 53.6 °F - 42.8 °F 67% 30.08 in 10.0 mi NNE 5.8 mph - N/A   Overcast
12:55 PM 53.6 °F - 44.6 °F 72% - 10.0 mi NNE 8.1 mph - N/A   Overcast
1:15 PM 55.4 °F - 44.6 °F 67% - 10.0 mi North 5.8 mph - N/A   Overcast
1:35 PM 55.4 °F - 42.8 °F 63% 30.05 in 10.0 mi North 5.8 mph - N/A   Overcast
1:55 PM 55.4 °F - 44.6 °F 67% 30.05 in 10.0 mi NNE 8.1 mph - N/A   Overcast
2:15 PM 55.4 °F - 44.6 °F 67% 30.05 in 10.0 mi NNW 11.5 mph - N/A   Overcast
2:35 PM 55.4 °F - 44.6 °F 67% 30.05 in 10.0 mi North 8.1 mph - N/A   Overcast
2:55 PM 55.4 °F - 44.6 °F 67% 30.04 in 10.0 mi NNW 10.4 mph - N/A   Mostly Cloudy
3:15 PM 55.4 °F - 44.6 °F 67% 30.04 in 10.0 mi NNW 12.7 mph - N/A   Clear
3:35 PM 55.4 °F - 44.6 °F 67% 30.04 in 10.0 mi North 10.4 mph - N/A   Clear
3:55 PM 55.4 °F - 44.6 °F 67% 30.04 in 10.0 mi North 11.5 mph - N/A   Clear
4:15 PM 53.6 °F - 42.8 °F 67% 30.04 in 10.0 mi North 13.8 mph - N/A   Clear
4:35 PM 53.6 °F - 42.8 °F 67% 30.04 in 10.0 mi North 11.5 mph - N/A   Clear
4:55 PM 53.6 °F - 42.8 °F 67% 30.04 in 10.0 mi North 9.2 mph - N/A   Clear
5:15 PM 51.8 °F - 42.8 °F 71% 30.04 in 10.0 mi North 12.7 mph - N/A   Clear
5:35 PM 51.8 °F - 42.8 °F 71% - 10.0 mi NNE 9.2 mph - N/A   Clear
5:55 PM 51.8 °F - 42.8 °F 71% - 10.0 mi NNE 9.2 mph - N/A   Clear
6:15 PM 51.8 °F - 41.0 °F 67% - 10.0 mi NNE 11.5 mph - N/A   Clear
6:35 PM 50.0 °F - 41.0 °F 71% 30.04 in 10.0 mi North 11.5 mph - N/A   Clear
6:55 PM 50.0 °F - 41.0 °F 71% 30.03 in 10.0 mi North 10.4 mph - N/A   Scattered Clouds
7:15 PM 50.0 °F - 41.0 °F 71% 30.03 in 10.0 mi North 8.1 mph - N/A   Mostly Cloudy
7:35 PM 50.0 °F - 41.0 °F 71% 30.02 in 10.0 mi North 8.1 mph - N/A   Overcast
7:55 PM 50.0 °F - 42.8 °F 76% 30.03 in 10.0 mi North 9.2 mph - N/A   Overcast
8:15 PM 50.0 °F - 42.8 °F 76% 30.03 in 10.0 mi North 8.1 mph - N/A   Overcast
8:35 PM 50.0 °F - 42.8 °F 76% - 10.0 mi North 8.1 mph - N/A   Overcast
8:55 PM 50.0 °F - 42.8 °F 76% 30.03 in 10.0 mi North 8.1 mph - N/A   Overcast
9:15 PM 50.0 °F - 42.8 °F 76% 30.02 in 10.0 mi North 9.2 mph - N/A   Overcast
9:35 PM 50.0 °F - 42.8 °F 76% 30.02 in 10.0 mi North 10.4 mph - N/A   Overcast
9:55 PM 50.0 °F - 42.8 °F 76% 30.02 in 10.0 mi North 8.1 mph - N/A   Overcast
10:15 PM 50.0 °F - 42.8 °F 76% 30.02 in 10.0 mi NNE 6.9 mph - N/A   Overcast
10:35 PM 50.0 °F - 42.8 °F 76% 30.01 in 10.0 mi NNE 8.1 mph - N/A   Overcast
11:15 PM 50.0 °F - 42.8 °F 76% 30.00 in 10.0 mi NNE 8.1 mph - N/A   Overcast
11:35 PM 50.0 °F - 42.8 °F 76% 30.00 in 10.0 mi NNE 6.9 mph - N/A   Overcast
11:55 PM 51.8 °F - 42.8 °F 71% 30.00 in 10.0 mi NNE 8.1 mph - N/A   Overcast